Location: Wellington
(41.3000°S, 174.7830°E)
Time: 00:13:25
(UTC+13:00)

ERS-1 Rocket - Pass Details

Date: 24 January 2019
Orbit: 754 x 757 km, 98.5° (Epoch: 21 February)

Event Time Altitude Azimuth Distance (km) Brightness Sun altitude
Rises 22:36:58 0° 153° (SSE) 3,246 6.5 -17.0°
Reaches altitude 10° 22:39:43 10° 139° (SE) 2,312 5.6 -17.4°
Maximum altitude 22:43:47 24° 86° (E) 1,551 4.2 -17.9°
Enters shadow 22:44:01 24° 82° (E) 1,553 4.2 -17.9°
